Regional Weather Roundup
Issued by NWS

Home | Current Version | Previous Version | Text Only | Print | Product List | Glossary Off
Versions: 1 2 3 4 5 6 7 8 9 10 11 12 13 14 15 16 17 18 19 20 21 22 23 24 25 26 27 28 29 30 31 32 33 34 35 36 37 38 39 40 41 42 43 44 45 46 47 48 49 50

000
ASUS43 KFSD 191310
RWRSD

WEATHER ROUNDUP FOR SOUTH DAKOTA
NATIONAL WEATHER SERVICE SIOUX FALLS SD
800 AM CDT TUE SEP 19 2017

NOTE: "FAIR" INDICATES FEW OR NO CLOUDS BELOW 12,000 FEET WITH NO
SIGNIFICANT WEATHER AND/OR OBSTRUCTIONS TO VISIBILITY.


SDZ001>005-009-010-012>017-191400-
NORTHWEST AND NORTH CENTRAL SOUTH DAKOTA

CITY           SKY/WX    TMP DP  RH WIND       PRES   REMARKS
BUFFALO          N/A     59  44  57 W13       29.45R
FAITH            N/A     63  52  67 SE15      29.50F
MOBRIDGE       CLOUDY    64  60  87 SE17G26   29.55F
$$

SDZ012>016-024>037-041>051-057-063-072>074-191400-
SOUTHWEST AND SOUTH CENTRAL SOUTH DAKOTA

CITY           SKY/WX    TMP DP  RH WIND       PRES   REMARKS
RAPID CTY ARPT CLEAR     61  46  59 S9        29.55F
PIERRE         CLOUDY    61  59  93 SE13      29.58F
CUSTER         CLOUDY    59  36  42 SW8       29.67S
ELLSWORTH AFB  CLOUDY    62  47  58 S15       29.52F
PHILIP         CLOUDY    68  56  65 S12G17    29.53F
PINE RIDGE     CLOUDY    65  55  70 S18G29    29.58F
SPEARFISH      FAIR      57  39  51 W8        29.59R
WINNER         FAIR      66  60  81 S18       29.62F
$$

SDZ004>011-016>023-039-040-191400-
NORTHEAST SOUTH DAKOTA

CITY           SKY/WX    TMP DP  RH WIND       PRES   REMARKS
ABERDEEN       CLOUDY    67  65  93 SE15      29.68F
WATERTOWN      CLOUDY    64  64 100 SE15      29.76F FOG
BROOKINGS      CLOUDY    64  63  96 SE16      29.79F
SISSETON         N/A     65  64  97 SE15G21   29.74F
$$

SDZ017-020-022-023-036>040-048>070-191400-
SOUTHEAST SOUTH DAKOTA

CITY           SKY/WX    TMP DP  RH WIND       PRES   REMARKS
SIOUX FALLS    DRZL/FOG  66  66 100 SE12      29.79F VSB 1/2
HURON          CLOUDY    67  65  93 SE13G24   29.70F
CHAMBERLAIN    FOG       63  63 100 E16G22    29.65F VSB 1/2
MITCHELL       CLOUDY    68  65  90 SE14G23   29.71F
YANKTON        CLOUDY    67  65  93 SE9       29.76S
$$

ABBREVIATIONS USED IN REMARKS
   TC - TEMPERATURE IN CELSIUS
  WCI - WIND CHILL INDEX
   HX - HEAT INDEX
  VSB - VISIBILITY





USA.gov is the U.S. government's official web portal to all federal, state and local government web resources and services.